Date String (YYYY-MM-DD hh:mm:ss) UTC,Instrument flags,Ambient pressure (hPa),Sample flow (lpm),Bypass flow (lpm),Sample temperature (°C),Ambient temperature (°C),ASC tube jacket temperature (°C),LED temperature (°C),Box temperature (°C),Sample RH (%),Span deviation,Mass concentration (μg/m³),Mass concentration (μg/m³),Mass concentration (μg/m³)
DateTimeUTC,F1_M11,P_M11,Q1_M11,Q2_M11,T1_M11,T2_M11,T3_M11,T4_M11,T5_M11,U1_M11,ZSPAN_M11,X0_M11,X2_M11,X1_M11
2022-07-07 05:00:00,,0829.0,5.00,0.00,30.8,28.0,00.0,39.6,32.1,34.3,0000.0,0006.44,0003.87,0003.48
2022-07-07 05:01:00,,0828.9,5.00,0.00,30.7,28.2,00.0,39.6,32.1,34.1,0000.0,0006.49,0003.92,0003.51
2022-07-07 05:02:00,,0829.0,5.00,0.00,30.7,28.3,00.0,39.6,32.1,34.4,0000.0,0006.82,0004.01,0003.54
2022-07-07 05:03:00,,0829.0,5.00,0.00,30.7,28.4,00.0,39.5,32.1,34.8,0000.0,0007.21,0004.13,0003.59
2022-07-07 05:04:00,,0828.9,5.01,0.00,30.7,28.5,00.0,39.5,32.1,35.2,0000.0,0007.67,0004.24,0003.68
2022-07-07 05:05:00,,0828.9,5.01,0.00,30.9,28.6,00.0,39.5,32.3,34.7,0000.0,0008.07,0004.35,0003.76
2022-07-07 05:06:00,,0829.0,5.00,0.00,31.1,28.6,00.0,39.5,32.3,34.1,0000.0,0008.39,0004.43,0003.81
2022-07-07 05:07:00,,0829.0,5.01,0.00,31.2,28.7,00.0,39.5,32.3,33.4,0000.0,0008.52,0004.46,0003.82
2022-07-07 05:08:00,,0829.0,4.99,0.00,31.2,28.8,00.0,39.5,32.3,33.2,0000.0,0008.47,0004.42,0003.79
2022-07-07 05:09:00,,0828.9,4.99,0.00,31.2,28.8,00.0,39.5,32.3,33.4,0000.0,0008.51,0004.37,0003.76
2022-07-07 05:10:00,,0828.9,5.00,0.00,31.2,28.9,00.0,39.6,32.3,33.8,0000.0,0008.35,0004.33,0003.74
2022-07-07 05:11:00,,0828.9,5.00,0.00,31.2,28.9,00.0,39.6,32.3,33.8,0000.0,0008.25,0004.32,0003.75
2022-07-07 05:12:00,,0828.9,5.00,0.00,31.2,28.9,00.0,39.6,32.3,33.6,0000.0,0008.28,0004.33,0003.76
2022-07-07 05:13:00,,0828.8,5.00,0.00,31.2,29.0,00.0,39.6,32.4,33.4,0000.0,0008.33,0004.34,0003.77
2022-07-07 05:14:00,,0829.0,5.00,0.00,31.2,29.0,00.0,39.6,32.4,33.1,0000.0,0008.29,0004.30,0003.75
2022-07-07 05:15:00,,0829.3,5.01,0.00,31.2,29.0,00.0,39.7,32.4,33.0,0000.0,0008.10,0004.29,0003.70
2022-07-07 05:16:00,,0829.1,5.01,0.00,31.2,29.1,00.0,39.7,32.4,32.8,0000.0,0007.80,0004.23,0003.67
2022-07-07 05:17:00,,0828.7,5.00,0.00,31.1,29.1,00.0,39.7,32.4,32.8,0000.0,0007.96,0004.19,0003.65
2022-07-07 05:18:00,,0828.9,5.00,0.00,31.1,29.1,00.0,39.7,32.4,32.8,0000.0,0008.15,0004.18,0003.64
2022-07-07 05:19:00,,0828.9,4.99,0.00,31.1,29.1,00.0,39.7,32.4,32.9,0000.0,0008.16,0004.19,0003.65
2022-07-07 05:20:00,,0828.8,5.00,0.00,31.1,28.9,00.0,39.7,32.4,32.9,0000.0,0008.09,0004.21,0003.64
2022-07-07 05:21:00,,0828.7,5.00,0.00,31.1,28.1,00.0,39.6,32.3,32.9,0000.0,0008.13,0004.21,0003.63
2022-07-07 05:22:00,,0828.7,5.01,0.00,31.0,27.7,00.0,39.6,32.2,33.0,0000.0,0008.18,0004.22,0003.61
2022-07-07 05:23:00,,0828.7,4.99,0.00,30.9,27.7,00.0,39.5,32.0,33.7,0000.0,0008.17,0004.19,0003.60
2022-07-07 05:24:00,,0829.0,5.00,0.00,30.8,27.7,00.0,39.5,32.0,34.2,0000.0,0008.52,0004.19,0003.60
2022-07-07 05:25:00,,0829.0,5.00,0.00,30.7,27.8,00.0,39.4,31.9,33.7,0000.0,0008.41,0004.17,0003.60
2022-07-07 05:26:00,,0829.3,4.99,0.00,30.6,27.9,00.0,39.4,31.9,33.0,0000.0,0008.24,0004.08,0003.57
2022-07-07 05:27:00,,0828.8,5.00,0.00,30.6,28.0,00.0,39.4,32.0,32.6,0000.0,0008.48,0004.03,0003.53
2022-07-07 05:28:00,,0828.7,5.00,0.00,30.6,28.2,00.0,39.4,32.0,32.4,0000.0,0008.29,0003.98,0003.49
2022-07-07 05:29:00,,0828.8,5.00,0.00,30.5,28.3,00.0,39.3,32.0,32.8,0000.0,0008.24,0003.92,0003.46
2022-07-07 05:30:00,,0829.1,4.99,0.00,30.5,28.4,00.0,39.3,32.0,33.2,0000.0,0008.26,0003.91,0003.44
2022-07-07 05:31:00,,0829.2,5.01,0.00,30.5,28.5,00.0,39.3,32.0,33.5,0000.0,0008.23,0003.89,0003.43
2022-07-07 05:32:00,,0828.8,5.01,0.00,30.5,28.5,00.0,39.3,32.0,33.8,0000.0,0008.20,0003.87,0003.41
2022-07-07 05:33:00,,0828.9,5.01,0.00,30.5,28.6,00.0,39.3,32.0,33.9,0000.0,0008.16,0003.84,0003.41
2022-07-07 05:34:00,,0828.9,4.99,0.00,30.5,28.7,00.0,39.3,32.0,33.8,0000.0,0008.37,0003.86,0003.39
2022-07-07 05:35:00,,0828.9,5.01,0.00,30.5,28.7,00.0,39.3,32.1,33.8,0000.0,0008.01,0003.81,0003.35
2022-07-07 05:36:00,,0829.0,5.00,0.00,30.5,28.8,00.0,39.2,32.1,33.8,0000.0,0008.12,0003.80,0003.34
2022-07-07 05:37:00,,0829.0,5.01,0.00,30.5,28.8,00.0,39.2,32.1,33.9,0000.0,0008.19,0003.83,0003.36
2022-07-07 05:38:00,,0829.0,5.00,0.00,30.5,28.8,00.0,39.2,32.1,34.0,0000.0,0007.98,0003.89,0003.38
2022-07-07 05:39:00,,0829.0,4.99,0.00,30.5,28.9,00.0,39.2,32.1,34.0,0000.0,0007.78,0003.92,0003.40
2022-07-07 05:40:00,,0829.0,4.99,0.00,30.5,28.9,00.0,39.2,32.1,34.0,0000.0,0007.58,0003.97,0003.42
2022-07-07 05:41:00,,0829.0,5.00,0.00,30.5,28.9,00.0,39.2,32.1,34.1,0000.0,0007.68,0004.02,0003.43
2022-07-07 05:42:00,,0829.0,5.00,0.00,30.5,28.9,00.0,39.2,32.1,34.2,0000.0,0007.62,0004.02,0003.43
2022-07-07 05:43:00,,0829.0,5.00,0.00,30.5,29.0,00.0,39.2,32.2,34.1,0000.0,0007.62,0004.01,0003.43
2022-07-07 05:44:00,,0829.0,5.00,0.00,30.5,29.0,00.0,39.2,32.2,34.0,0000.0,0007.68,0004.03,0003.42
2022-07-07 05:45:00,,0828.9,5.01,0.00,30.5,29.0,00.0,39.3,32.2,34.1,0000.0,0007.56,0004.01,0003.43
2022-07-07 05:46:00,,0828.9,5.00,0.00,30.5,29.0,00.0,39.3,32.2,34.2,0000.0,0007.68,0004.00,0003.44
2022-07-07 05:47:00,,0828.9,5.01,0.00,30.5,29.1,00.0,39.3,32.2,34.0,0000.0,0007.89,0003.98,0003.44
2022-07-07 05:48:00,,0828.9,5.00,0.00,30.5,29.1,00.0,39.3,32.2,33.9,0000.0,0007.83,0003.97,0003.45
2022-07-07 05:49:00,,0828.9,5.00,0.00,30.5,29.1,00.0,39.3,32.3,33.8,0000.0,0008.25,0003.95,0003.46
2022-07-07 05:50:00,,0828.9,5.00,0.00,30.5,29.1,00.0,39.3,32.3,33.8,0000.0,0008.22,0003.93,0003.46
2022-07-07 05:51:00,,0828.9,5.01,0.00,30.5,28.7,00.0,39.2,32.2,33.8,0000.0,0008.17,0003.93,0003.46
2022-07-07 05:52:00,,0828.9,5.00,0.00,30.5,28.0,00.0,39.2,32.1,33.7,0000.0,0008.02,0003.86,0003.46
2022-07-07 05:53:00,,0828.9,5.00,0.00,30.5,27.6,00.0,39.1,32.0,33.7,0000.0,0008.03,0003.85,0003.46
2022-07-07 05:54:00,,0828.9,5.00,0.00,30.3,27.6,00.0,39.1,31.9,33.9,0000.0,0007.98,0003.83,0003.47
2022-07-07 05:55:00,,0828.9,5.00,0.00,30.2,27.6,00.0,39.1,31.8,34.0,0000.0,0007.93,0003.83,0003.47
2022-07-07 05:56:00,,0828.9,5.00,0.00,30.2,27.8,00.0,39.1,31.7,34.0,0000.0,0007.86,0003.83,0003.46
2022-07-07 05:57:00,,0829.0,5.00,0.00,30.2,27.9,00.0,39.0,31.8,34.2,0000.0,0007.61,0003.83,0003.46
2022-07-07 05:58:00,,0829.0,5.00,0.00,30.1,28.0,00.0,39.0,31.8,34.7,0000.0,0007.18,0003.84,0003.46
2022-07-07 05:59:00,,0829.0,5.01,0.00,30.1,28.1,00.0,39.0,31.8,34.7,0000.0,0007.21,0003.84,0003.46
